Dewpoint
25 24 26 27 27 28 32 32 25 31 34 35 36 36 35 34 32 32 33 34 37 37 36 32 23 19 19 20 22 23 23 23 24 25 21 21 21 20 19 18 17 18 18 18
25 27 28 30 32 33 34 34 34 34 34 37 37 36 35 33 32 31 32 35 37 35 34 31 21 18 19 21 23 23 23 25 26 25 21 20 21 20 20 19 17 17 18 18
22 26 23 22 27 29 31 34 34 32 34 36 36 35 34 33 32 32 34 37 35 34 34 29 18 18 20 21 23 23 23 25 26 25 21 21 20 20 19 19 18 18 18 18
25 23 14 24 32 32 33 33 34 36 36 35 33 33 34 34 34 35 36 35 34 33 23 19 18 20 20 21 22 23 23 24 26 25 21 20 20 20 19 19 19 18 19 19
24 23 25 27 31 31 29 31 36 33 32 32 33 33 32 34 35 36 35 34 33 30 21 19 19 20 19 21 23 23 23 23 24 24 21 21 20 20 19 19 19 20 21 21
26 23 21 27 28 31 31 27 35 34 33 32 33 31 31 35 36 34 34 33 25 21 21 20 20 20 21 22 23 23 23 23 23 23 22 21 21 21 20 20 20 22 21 21
26 25 27 30 29 32 23 23 36 34 34 33 34 34 34 36 35 35 32 25 23 21 20 21 20 22 23 23 23 23 22 22 22 22 22 22 22 21 20 20 22 21 20 20
30 25 19 33 31 27 31 37 36 35 35 34 34 35 35 35 34 26 24 23 23 21 20 22 23 19 18 19 23 23 22 22 22 23 22 22 23 22 21 23 22 20 19 19
29 29 39 40 39 39 38 36 36 36 35 35 35 35 34 34 24 22 22 23 21 21 23 24 24 21 18 21 22 23 23 23 22 23 23 23 23 24 23 22 20 18 18 19
35 39 39 38 38 38 38 38 37 36 35 36 35 34 34 30 23 22 22 21 22 23 21 20 21 20 20 22 23 23 23 23 23 23 23 23 23 25 24 24 21 19 19 20
37 38 38 38 38 37 37 37 36 36 36 35 34 34 34 27 23 21 22 22 22 21 20 21 21 21 22 21 23 21 22 23 23 23 23 23 23 24 24 25 22 21 21 22
33 39 37 38 38 38 37 37 37 35 34 34 34 34 30 26 23 22 20 20 21 21 21 20 21 20 21 23 23 23 23 24 24 23 23 23 23 22 24 23 23 23 24 23
39 41 40 39 39 38 37 37 36 34 34 34 32 30 27 23 22 22 21 21 22 22 21 23 25 23 22 24 25 25 24 24 24 24 24 24 22 20 19 22 23 23 23 23
41 39 38 39 37 38 37 36 36 35 33 31 28 26 24 23 22 20 21 23 23 19 18 24 25 25 23 25 25 26 25 24 24 24 23 23 20 20 19 20 19 19 22 23
40 40 39 39 38 37 36 35 32 31 29 28 27 26 24 21 20 21 18 18 22 18 17 23 24 25 25 26 25 25 25 25 25 24 23 23 20 20 20 19 19 21 21 21
40 39 38 37 37 36 34 33 31 30 29 28 26 25 23 21 19 15 15 21 21 21 22 19 23 24 26 26 26 25 25 23 23 23 22 21 21 21 21 21 21 21 21 21
39 38 37 37 36 34 33 32 31 30 29 27 25 22 19 18 18 19 16 21 20 22 22 19 18 22 27 27 25 25 24 24 21 22 21 21 22 22 22 21 20 20 20 21
40 39 38 37 36 34 33 33 32 30 28 26 23 19 18 20 21 17 18 20 21 19 22 21 22 25 27 27 26 25 25 24 23 22 22 23 23 23 21 19 19 19 18 17
40 39 39 37 36 34 33 32 31 29 26 23 19 18 18 17 19 16 19 14 14 19 20 21 26 27 27 26 25 25 24 23 22 23 23 21 23 20 19 19 19 18 18 16
39 39 38 36 36 34 32 30 28 26 23 21 17 16 16 14 16 16 16 18 21 22 22 23 27 27 27 25 24 24 24 23 23 23 23 23 22 21 19 16 17 16 15 14
37 36 35 34 32 31 30 28 26 23 20 19 18 17 18 16 16 15 18 20 23 23 25 24 26 26 25 23 23 24 24 24 23 23 22 22 21 20 19 18 16 14 12 10
36 35 33 32 31 28 28 28 26 22 20 17 16 18 18 17 14 19 18 22 24 22 26 27 26 23 23 21 24 24 24 24 24 24 23 21 19 11 10 13 9 10 7 5
36 35 34 32 31 29 28 27 24 23 20 19 19 20 21 22 21 23 23 24 24 23 27 26 22 18 18 23 23 22 23 21 24 23 23 19 11 5 9 8 6 3 -2 1
36 35 33 32 30 29 27 26 24 23 22 21 21 22 23 23 25 26 24 21 20 21 25 22 17 18 18 20 18 19 19 25 22 24 23 15 3 2 2 -5 -1 -2 -5 -4
35 33 32 31 31 30 28 26 24 23 22 22 23 23 25 26 25 26 24 23 25 24 23 17 16 15 18 16 16 17 25 26 21 24 24 10 3 -3 -5 -5 -9 -8 -9 -9
34 34 34 33 33 30 28 27 25 24 23 23 23 24 26 27 26 25 24 23 25 21 21 15 14 14 14 17 21 26 26 26 24 24 24 13 4 2 -3 -4 -7 -8 -11 -10
34 33 32 31 31 29 29 28 26 24 24 24 23 24 25 25 23 23 22 24 20 18 18 16 16 17 18 20 26 26 26 26 25 24 23 4 0 -4 -6 -7 -9 -11 -12 -13
Lifted_Index
3 3 3 3 3 3 2 2 2 3 3 3 4 5 5 6 6 6 7 7 8 8 8 9 11 12 13 14 15 15 15 14 13 12 12 12 12 12 12 13 13 14 14 14
3 3 3 3 3 3 3 3 3 3 3 4 4 5 5 6 6 6 7 7 7 8 9 10 12 13 14 15 15 15 15 14 12 12 12 12 12 12 12 13 13 13 14 14
3 3 3 3 4 4 3 3 4 4 4 4 4 5 5 5 6 6 6 7 7 8 10 12 13 14 14 15 15 15 14 13 12 11 11 11 11 12 12 13 13 13 13 14
3 3 3 4 4 4 4 4 4 4 4 4 4 5 5 5 6 6 7 7 9 10 12 13 13 14 15 15 15 15 14 12 11 11 11 11 11 12 12 13 13 13 13 14
3 3 3 4 4 4 4 4 5 4 4 4 5 5 5 6 6 7 7 9 11 12 13 13 14 14 15 15 15 14 13 12 11 11 11 11 11 12 12 13 13 13 13 14
4 3 3 4 4 4 4 4 4 4 4 4 5 5 5 6 6 8 9 11 13 13 13 13 14 15 15 15 14 14 13 12 11 11 11 11 11 12 12 13 13 13 13 14
4 3 3 4 4 4 4 4 4 4 4 5 5 5 5 6 8 10 12 13 14 14 13 14 15 15 15 15 14 14 14 13 12 11 11 11 12 12 12 12 12 12 13 13
4 3 4 4 5 4 4 4 4 4 4 5 5 5 6 8 10 12 13 14 14 14 14 14 15 15 15 15 15 14 14 13 12 11 11 12 12 12 12 12 12 12 12 12
4 4 4 5 5 4 4 4 4 4 5 5 5 6 8 10 12 13 14 14 14 14 14 14 15 15 15 15 15 14 14 13 12 11 11 12 12 12 12 12 12 12 12 13
4 4 5 5 4 4 4 4 5 5 5 5 6 8 10 11 12 13 14 14 15 14 14 14 15 15 15 15 15 14 14 13 13 12 12 12 12 12 12 13 13 13 13 14
4 4 4 4 4 5 5 5 6 6 6 6 7 9 11 12 12 13 14 15 15 14 14 14 15 15 15 15 15 14 14 13 13 12 12 12 13 13 13 14 14 14 15 15
4 4 4 4 5 6 6 6 6 6 7 8 9 11 12 12 13 14 14 15 15 15 14 14 15 15 15 15 15 14 13 13 13 13 12 12 12 12 13 14 15 15 15 15
3 4 4 4 5 7 7 7 7 8 8 10 11 12 12 12 13 14 15 15 15 15 15 15 15 15 15 15 15 14 14 13 13 12 12 11 11 11 12 13 14 14 15 15
3 3 3 4 6 7 8 8 8 9 10 12 13 13 13 13 13 14 15 15 15 15 15 15 15 15 16 16 15 14 14 13 13 12 12 11 11 11 11 12 12 13 14 14
4 4 4 5 6 7 8 8 8 9 11 12 13 13 13 13 13 14 15 15 15 15 15 15 15 15 16 16 15 15 14 13 13 12 12 12 11 11 11 11 11 12 12 12
3 4 4 5 6 7 8 8 8 9 11 12 13 14 14 14 14 15 15 15 15 15 15 15 15 15 16 16 15 14 13 13 12 12 12 11 11 11 11 11 11 11 12 12
3 3 4 5 5 6 7 8 8 9 11 12 13 14 14 14 14 15 15 15 15 15 15 15 15 16 16 16 15 14 13 13 12 12 11 11 11 11 11 11 12 12 12 13
3 3 4 4 5 6 7 8 8 9 11 12 14 14 14 14 14 15 15 15 15 15 16 16 16 16 16 16 15 14 13 13 12 12 11 12 12 13 13 13 13 13 13 14
3 3 4 5 6 7 7 8 8 10 11 13 14 14 14 14 15 15 15 15 15 15 16 16 16 15 15 15 15 14 13 13 12 12 12 13 13 14 14 13 13 13 13 13
3 3 4 5 6 6 7 8 9 10 11 12 13 14 14 15 15 16 16 15 15 16 16 16 16 15 15 15 14 14 14 13 13 13 13 14 14 14 14 14 14 14 14 14
3 3 4 5 6 6 7 8 9 10 11 12 13 14 15 15 16 16 16 15 16 16 17 16 16 15 15 14 14 14 14 14 14 14 15 15 14 14 14 14 14 14 14 14
3 3 4 5 6 6 7 8 9 10 11 12 13 14 15 15 16 16 16 16 16 16 17 17 16 15 15 14 13 14 14 14 15 15 16 15 15 15 14 14 14 14 14 14
3 4 4 5 6 6 7 8 9 10 11 12 13 14 15 15 16 16 16 16 16 17 17 17 17 16 15 14 13 13 14 14 15 16 16 16 16 16 15 15 15 15 15 15
3 4 4 5 5 6 7 8 9 10 11 12 14 14 15 16 16 16 16 16 17 17 17 17 17 17 16 14 14 14 14 15 16 17 17 17 17 17 16 16 16 16 16 16
3 4 4 5 5 6 7 8 9 10 11 12 14 15 15 16 16 16 17 17 17 17 17 17 18 18 16 15 14 14 14 15 16 17 17 18 18 18 17 17 17 17 17 17
3 4 4 4 5 5 6 7 8 9 10 12 13 14 16 16 17 16 16 16 16 17 17 17 18 18 17 16 15 15 15 15 16 17 18 18 18 18 18 18 18 18 18 18
3 4 4 4 5 5 6 7 7 8 10 11 13 14 15 16 16 16 16 16 16 16 17 17 17 18 18 17 16 15 15 16 17 17 18 18 18 18 19 19 19 19 19 18